Showing default

COSMOS 1994, 19785

Orbit data source: Space-Track

COSMOS 1994, 19785 is a payload satellite owned by UNKS (CIS) in LEO that was launched on Fri, 10 Feb 1989 UTC via a TSIKLON-3 launch vehicle from the Plesetsk Missile And Space Complex (PKMTR). Payload-class satellites include a variety of spacecraft equipped with specific instruments for various scientific and technological missions. These include communications satellites like Starlink; space stations such as the ISS; scientific satellites like the Hubble; Earth observation satellites from companies like Planet Labs, Umbra, and HawkEye 360; GPS; miniature CubeSats for education and research; and military/defense satellites.

Loading next visibility...
Identifier
19785, 1989-009A
Orbit
LEO
Country
Flag of CISCIS
Related business
Manufacturer
NPO PM
Mission
Defense Communications
Bus & Motor
STRELA-3, Unknown motor
Mass
225 kg wet, 225 kg dry
Launch date (UTC)
1989-02-10 (37 years ago)
Launch vehicle
TSIKLON-3
Launch site
Plesetsk Missile And Space Complex (PKMTR)
Object type
Payload
Rocket body
Debris
Shape & HBR
Cyl, 0.8 m
Radar Cross Section
1.257 m², Large (>1 m²)

Expand to show TLE details & history
Last TLE update: 13 hours ago

TLE from 13 hours ago
0 COSMOS 1994
1 19785U 89009A   25340.91741005  .00000018  00000-0  37192-4 0  9992
2 19785  82.6197 114.2408 0013086  31.3696  91.3289 12.64337759699082
Epoch: 2025-12-06T22:01Z
TLE epoch observation values (Epoch: 2025-12-06T22:01:04.228Z)
Latitude
56.51471°
Longitude
-123.2003°
Altitude
1,414.73 km
Speed
7.158 km/s
True Right ascension
18h 52m 01s
True Declination
56° 22' 11"
Sunlit
Object was in daylight at epoch
Visualization orbit readout
Latitude
Unknown
Longitude
Unknown
Altitude
Unknown
Speed
Unknown
Apparent Right ascension
Unknown
Apparent Declination
Unknown
Sunlit
N/A
Visualization observer readout
Local Sidereal Time
09:11:47
Azimuth
Unknown
Elevation
Unknown
Doppler factor
Unknown
Orbital elements
Apogee altitude
1,412.589 km
Perigee altitude
1,392.226 km
Semi-major axis
7,780.545 km
Eccentricity
0.00131
Inclination
82.6197°
RAAN
114.2408°
Arg. of periapsis
31.3696°
True anomaly
91.47881°
Mean anomaly
91.3289°
Eccentric anomaly
91.40385°
Mean motion
3.16248 °/min
Orbital period
113.83 mins
BSTAR
0.000037192
Loading maneuver chart data...
Computing Atmospheric mass density...
Loading historical data...
Loading historical data...
Loading historical data...
Loading historical data...
Loading historical data...
Loading historical data...
Loading historical data...

Documentation

Showing up to 5 results
|